Temperature
5 4 4 3 3 2 1 0 -1 -1 -0 0 -0 0 -0 -0 0 -0 -1 -1 -1 -1 -1 -1 -2 -2 -2 -2 -2 -2 -2 -2 -2 -1 -1 -1 -0 0
4 4 3 3 2 2 1 0 -1 -2 -2 -1 -1 -1 -1 -1 -1 -1 -1 -2 -2 -2 -2 -2 -3 -3 -3 -3 -3 -3 -3 -2 -2 -2 -1 -1 -1 -0
4 3 3 2 2 1 1 0 -1 -1 -2 -2 -2 -2 -2 -2 -2 -2 -2 -3 -3 -3 -3 -3 -3 -3 -4 -4 -3 -3 -3 -3 -3 -2 -2 -2 -1 -1
3 3 2 2 1 1 0 -0 -1 -2 -2 -3 -2 -3 -3 -3 -3 -3 -4 -4 -4 -4 -4 -4 -4 -4 -4 -4 -4 -4 -4 -3 -3 -3 -3 -2 -2 -2
3 2 2 1 1 0 -0 -1 -1 -2 -3 -3 -3 -4 -4 -4 -4 -5 -5 -5 -5 -5 -4 -4 -4 -4 -4 -4 -4 -4 -4 -4 -4 -4 -3 -3 -3 -2
3 2 2 1 1 -0 -1 -1 -2 -3 -3 -4 -4 -4 -5 -5 -5 -5 -5 -5 -5 -5 -5 -5 -5 -5 -5 -4 -4 -4 -4 -4 -4 -4 -4 -4 -3 -3
2 2 1 1 0 -0 -1 -2 -3 -3 -4 -4 -5 -5 -5 -5 -5 -5 -5 -5 -5 -5 -5 -5 -5 -5 -5 -5 -5 -5 -5 -5 -5 -5 -4 -4 -4 -3
1 1 0 -0 -0 -1 -1 -2 -3 -4 -4 -5 -5 -5 -5 -5 -6 -6 -6 -6 -6 -6 -6 -6 -6 -6 -6 -6 -5 -5 -5 -5 -5 -5 -5 -4 -4 -4
1 0 -0 -0 -1 -2 -2 -3 -3 -3 -4 -5 -5 -5 -6 -6 -6 -6 -6 -6 -6 -6 -6 -6 -6 -6 -6 -6 -6 -6 -5 -5 -5 -5 -5 -4 -4 -4
0 -0 -1 -1 -2 -2 -3 -3 -4 -4 -4 -5 -5 -5 -6 -6 -6 -6 -6 -6 -6 -6 -6 -7 -6 -6 -6 -6 -6 -6 -6 -5 -5 -5 -5 -5 -4 -4
-0 -1 -1 -2 -2 -3 -4 -4 -4 -5 -5 -5 -5 -6 -6 -6 -6 -6 -7 -7 -7 -7 -7 -7 -7 -7 -7 -6 -6 -6 -6 -6 -5 -5 -5 -5 -5 -4
-1 -1 -2 -2 -3 -3 -4 -5 -5 -5 -5 -6 -6 -6 -6 -6 -6 -7 -7 -7 -8 -8 -7 -7 -7 -8 -7 -7 -6 -6 -6 -6 -6 -6 -5 -5 -5 -5
-2 -2 -2 -3 -3 -4 -4 -5 -5 -6 -6 -6 -6 -6 -7 -7 -7 -7 -7 -8 -8 -8 -8 -8 -8 -8 -8 -7 -7 -7 -7 -6 -6 -6 -6 -6 -5 -5
-3 -3 -3 -4 -4 -4 -5 -5 -6 -6 -6 -6 -7 -7 -7 -7 -7 -8 -8 -8 -8 -8 -8 -8 -8 -8 -8 -8 -7 -7 -7 -7 -6 -6 -6 -6 -6 -5
-3 -3 -4 -4 -5 -5 -6 -6 -6 -6 -7 -7 -7 -7 -8 -8 -8 -8 -8 -8 -8 -8 -8 -8 -8 -8 -8 -8 -8 -7 -7 -7 -7 -7 -6 -6 -6 -6
-3 -4 -4 -5 -5 -5 -6 -6 -7 -7 -7 -8 -8 -8 -8 -8 -8 -9 -9 -9 -9 -8 -8 -8 -8 -8 -8 -8 -8 -8 -7 -7 -7 -7 -7 -7 -6 -6
-4 -5 -5 -5 -6 -6 -7 -7 -7 -8 -8 -8 -8 -9 -9 -9 -9 -9 -9 -9 -9 -9 -9 -8 -8 -8 -8 -8 -8 -8 -7 -7 -7 -7 -7 -7 -7 -7
-5 -6 -6 -6 -6 -7 -7 -8 -8 -8 -8 -9 -9 -9 -9 -9 -9 -9 -9 -9 -9 -9 -9 -9 -9 -9 -8 -8 -8 -8 -8 -8 -7 -7 -7 -7 -7 -7
-6 -6 -6 -7 -7 -8 -8 -8 -9 -9 -9 -9 -9 -9 -10 -10 -10 -10 -10 -10 -10 -9 -9 -9 -9 -9 -9 -9 -8 -8 -8 -8 -8 -8 -8 -8 -7 -7
-6 -7 -7 -7 -8 -8 -9 -9 -9 -9 -9 -10 -10 -10 -10 -10 -10 -10 -10 -10 -10 -10 -9 -9 -9 -9 -9 -9 -9 -8 -8 -8 -8 -8 -8 -8 -7 -7
-7 -7 -8 -8 -8 -9 -9 -9 -10 -10 -10 -10 -10 -10 -10 -10 -10 -10 -10 -10 -10 -10 -10 -9 -9 -9 -9 -9 -9 -8 -8 -8 -8 -8 -8 -8 -8 -7
-8 -8 -8 -9 -9 -9 -10 -10 -10 -10 -10 -10 -10 -10 -10 -10 -10 -10 -10 -10 -10 -10 -10 -9 -9 -9 -9 -9 -9 -9 -9 -8 -8 -8 -8 -8 -8 -8
-8 -9 -9 -9 -9 -10 -10 -10 -10 -11 -11 -11 -11 -11 -11 -11 -11 -11 -10 -10 -10 -10 -10 -10 -10 -9 -9 -9 -9 -9 -9 -9 -8 -8 -8 -8 -8 -8
Wind_Speed
6 6 6 6 6 6 7 7 7 9 11 10 8 8 11 15 17 18 19 21 23 25 25 25 26 27 27 28 28 28 28 28 28 28 29 29 29 29
5 7 7 6 6 6 7 8 9 10 12 10 11 14 15 16 19 20 20 23 24 24 24 25 26 27 28 28 28 28 28 28 28 28 28 29 29 29
7 8 8 8 7 7 7 8 9 10 14 15 13 14 16 16 17 19 20 20 20 23 25 27 28 28 28 28 28 28 27 27 27 27 28 28 28 28
8 8 9 8 10 9 8 10 10 11 13 17 15 14 16 16 17 17 17 18 19 23 26 27 28 28 27 27 27 27 27 26 26 27 27 27 28 28
9 9 10 10 11 10 10 11 10 11 12 14 15 14 14 14 16 16 17 15 18 20 23 25 26 26 27 27 27 27 26 26 26 26 26 26 26 26
9 10 10 11 11 12 11 12 12 12 13 13 14 14 14 15 14 14 14 14 14 16 20 22 24 25 26 26 25 25 25 25 25 25 26 26 25 25
10 11 11 12 14 13 12 12 12 12 12 13 14 14 14 13 13 13 15 15 16 14 15 15 15 16 18 21 23 23 23 24 25 25 25 25 24 24
11 12 12 13 15 17 19 19 18 16 15 14 14 15 17 16 14 14 15 16 16 12 14 15 15 16 15 16 21 24 24 25 24 24 24 23 23 23
12 12 10 11 14 13 15 18 19 21 21 18 17 18 18 17 17 18 16 17 17 15 15 16 15 15 14 16 22 24 24 23 22 22 21 21 21 20
12 13 13 13 12 13 13 14 15 16 17 16 15 17 17 17 17 17 17 17 16 14 14 15 15 14 14 14 19 20 20 19 19 19 19 18 17 17
12 13 14 14 16 17 15 16 17 15 17 21 22 23 25 25 20 14 13 14 15 14 12 11 13 13 14 13 13 15 16 16 17 17 16 15 15 15
11 12 15 16 17 18 15 16 17 16 15 15 17 18 17 18 19 14 12 13 14 12 9 8 11 11 9 9 9 10 11 13 15 15 15 14 14 10
11 11 11 16 18 19 19 16 18 18 16 15 14 13 12 11 11 10 9 10 12 12 10 8 10 10 10 10 11 10 9 9 10 10 11 12 12 10
12 11 12 16 19 21 18 19 22 20 13 13 12 12 11 10 9 10 10 11 12 14 13 12 10 11 12 13 11 9 9 9 9 8 7 9 9 10
12 16 19 21 20 18 19 21 19 13 12 12 12 12 11 10 10 9 10 10 11 13 13 12 11 10 10 11 11 11 10 9 8 6 7 7 6 6
13 15 19 20 17 17 17 14 11 11 11 12 12 11 10 10 10 9 10 9 9 10 9 10 10 10 10 11 11 11 10 7 7 7 7 7 6 5
12 12 12 12 11 11 11 11 10 10 11 10 10 10 10 10 10 9 8 9 9 10 9 7 7 8 10 10 10 10 9 8 7 7 6 6 6 5
16 13 13 12 12 11 11 10 10 10 10 9 10 10 10 10 10 9 9 9 9 9 9 8 7 7 7 6 8 9 7 7 6 6 6 6 6 5
14 13 13 12 11 11 11 11 11 11 9 9 10 10 9 10 10 10 9 9 9 9 8 7 6 7 8 8 4 4 6 7 6 5 5 5 6 6
12 12 12 12 11 11 11 11 11 10 9 9 9 9 9 9 10 10 9 9 9 9 8 7 6 6 7 7 6 5 6 7 6 5 5 5 5 6
12 12 12 11 11 11 11 11 11 10 10 10 9 10 9 9 9 10 9 11 10 9 8 8 6 7 6 6 6 6 4 5 6 5 5 5 5 4
12 12 11 11 11 11 11 10 10 10 10 10 10 9 9 9 10 10 10 9 8 8 9 7 5 5 5 6 7 7 6 5 5 6 7 6 4 3
12 12 11 11 11 11 10 10 11 10 10 10 9 9 9 9 9 9 9 9 8 8 8 7 6 5 5 6 7 6 6 5 4 3 3 4 6 7
Wind_Direction
245 250 256 262 261 262 264 266 275 291 297 299 299 295 298 299 299 299 298 298 300 299 298 298 297 297 296 294 293 291 289 288 286 284 282 280 278 276
246 253 258 263 264 260 259 261 260 269 281 288 294 295 298 296 296 297 296 298 296 295 296 297 297 296 295 294 292 291 289 288 286 285 283 281 279 277
246 254 261 265 266 265 264 263 264 266 275 285 290 295 296 296 298 297 297 298 297 296 297 298 298 297 295 294 292 290 290 289 288 288 287 284 282 279
254 258 263 265 265 268 267 268 269 270 276 286 292 295 296 297 295 295 296 296 295 296 297 297 296 296 295 294 292 291 290 290 290 289 288 287 285 282
256 259 263 266 269 270 271 273 274 275 276 281 289 294 295 295 296 294 294 294 295 296 297 296 295 295 295 294 293 292 292 292 292 291 289 287 286 284
254 256 260 262 267 273 275 275 277 279 280 282 286 291 293 294 294 295 296 295 295 297 296 295 294 295 294 292 292 292 291 290 290 289 287 285 283 282
255 256 257 259 264 268 271 275 277 278 281 282 285 290 292 295 295 297 295 297 295 296 296 295 297 296 296 294 292 290 290 290 289 287 285 283 281 280
261 263 264 261 262 266 269 272 275 278 281 282 284 286 290 293 295 295 296 296 296 298 296 296 296 294 293 292 291 292 291 291 290 288 286 284 282 280
264 267 268 267 269 272 275 276 275 274 273 277 281 283 289 292 294 293 291 290 291 295 298 294 295 292 293 292 293 293 292 292 293 291 289 287 285 283
263 266 270 273 272 275 279 277 275 275 274 274 275 279 283 287 288 289 291 290 289 288 289 290 294 295 297 296 296 296 294 294 296 299 298 294 291 289
265 265 267 271 273 276 279 279 280 280 278 275 275 278 282 286 288 291 291 292 293 295 294 289 294 300 299 296 295 299 300 299 299 300 300 302 300 297
269 267 263 266 273 276 277 280 282 285 288 288 284 283 284 286 287 282 284 287 291 294 295 292 297 306 301 296 300 306 303 299 298 299 300 301 302 299
271 271 269 270 273 277 279 278 280 286 289 288 286 284 283 281 280 278 275 276 281 281 289 295 293 294 288 294 299 300 300 302 305 303 299 300 302 299
271 272 272 274 277 279 280 278 282 287 286 286 285 283 284 285 285 284 279 274 271 275 282 284 281 285 289 291 295 300 303 303 301 301 302 304 300 297
271 274 279 281 282 281 278 281 284 282 281 280 281 283 287 289 289 286 282 275 272 272 272 270 271 277 279 283 289 296 300 301 298 302 308 311 310 309
274 277 279 279 277 276 280 281 277 274 276 277 280 283 287 287 285 285 286 288 287 285 274 269 271 274 277 281 284 288 291 291 299 305 307 307 306 304
280 279 276 276 275 273 274 275 274 273 274 272 275 280 284 285 284 283 280 282 282 288 294 292 285 280 274 278 281 281 286 292 298 306 305 303 303 303
283 278 277 276 276 278 278 278 276 275 273 273 275 277 280 283 284 283 278 277 280 284 288 294 299 298 291 270 250 274 285 292 299 301 297 298 302 309
277 273 273 274 275 277 277 277 278 276 273 272 272 274 276 278 280 280 278 276 278 281 285 287 290 293 298 303 281 252 287 298 297 296 299 301 304 314
267 270 271 272 274 276 276 276 277 274 270 268 268 269 271 273 276 277 276 275 279 282 283 280 277 280 286 296 299 297 286 288 294 296 300 301 297 296
271 270 270 270 272 274 274 274 272 270 270 268 266 266 268 270 273 275 275 274 274 275 276 279 283 287 284 280 277 279 285 284 290 292 299 300 302 305
272 271 270 269 269 271 272 271 269 269 270 266 265 264 264 266 270 272 272 272 271 272 276 280 281 276 265 267 278 288 295 299 291 280 279 282 295 317
270 270 269 269 268 269 267 264 266 268 268 266 264 263 263 265 268 269 269 268 268 269 272 277 277 269 265 268 275 282 288 294 297 293 291 288 282 283
Height
1517 1516 1514 1512 1510 1508 1506 1504 1501 1495 1490 1488 1485 1480 1477 1473 1468 1464 1460 1456 1452 1448 1445 1441 1438 1435 1432 1429 1427 1425 1423 1422 1420 1419 1418 1418 1417 1417
1513 1512 1510 1508 1505 1503 1501 1498 1495 1492 1486 1481 1479 1476 1472 1467 1463 1458 1454 1449 1445 1441 1438 1434 1431 1427 1424 1421 1419 1417 1415 1414 1412 1411 1410 1409 1408 1408
1508 1507 1505 1503 1500 1498 1495 1493 1490 1486 1480 1475 1473 1470 1466 1461 1456 1452 1448 1443 1439 1435 1431 1427 1423 1420 1417 1414 1411 1409 1407 1405 1404 1402 1401 1400 1399 1398
1503 1501 1500 1497 1495 1492 1490 1487 1484 1481 1476 1469 1466 1463 1459 1455 1450 1446 1441 1437 1433 1429 1424 1420 1416 1412 1409 1406 1403 1401 1399 1397 1395 1394 1392 1391 1390 1389
1498 1496 1494 1492 1489 1487 1484 1481 1478 1474 1470 1465 1459 1456 1452 1448 1444 1439 1435 1431 1427 1423 1418 1413 1409 1406 1402 1399 1396 1393 1391 1389 1387 1385 1383 1382 1381 1381
1492 1490 1488 1485 1483 1480 1477 1474 1471 1468 1464 1459 1454 1450 1446 1442 1439 1434 1428 1425 1421 1416 1412 1407 1403 1399 1395 1391 1388 1385 1382 1380 1378 1376 1375 1374 1373 1372
1485 1483 1481 1478 1476 1473 1470 1467 1464 1461 1457 1453 1448 1444 1440 1437 1433 1429 1423 1418 1414 1411 1405 1401 1397 1392 1389 1385 1381 1378 1375 1372 1370 1368 1366 1365 1365 1364
1479 1476 1474 1471 1469 1466 1463 1460 1458 1455 1450 1447 1442 1438 1434 1431 1427 1423 1418 1412 1406 1405 1400 1394 1391 1386 1381 1378 1374 1371 1368 1365 1363 1361 1359 1358 1357 1356
1472 1470 1467 1464 1461 1458 1455 1452 1449 1447 1444 1441 1435 1431 1428 1425 1421 1416 1412 1407 1401 1398 1394 1387 1384 1379 1375 1371 1367 1364 1361 1358 1356 1354 1352 1351 1350 1349
1465 1463 1460 1457 1454 1451 1447 1443 1440 1438 1436 1432 1428 1424 1421 1418 1415 1410 1405 1399 1394 1392 1389 1382 1377 1373 1369 1365 1361 1358 1355 1352 1350 1348 1346 1345 1343 1343
1457 1455 1452 1449 1446 1443 1440 1436 1432 1429 1427 1424 1421 1417 1414 1411 1408 1403 1398 1394 1388 1384 1382 1378 1372 1368 1363 1359 1356 1353 1350 1347 1345 1343 1341 1339 1338 1337
1449 1447 1444 1441 1439 1436 1433 1429 1425 1421 1419 1415 1412 1409 1406 1402 1399 1396 1392 1388 1383 1378 1375 1373 1368 1364 1358 1355 1353 1350 1346 1343 1341 1338 1336 1335 1333 1332
1441 1438 1436 1433 1431 1428 1425 1422 1418 1415 1411 1407 1404 1400 1397 1394 1391 1388 1385 1382 1377 1373 1371 1368 1364 1361 1358 1352 1348 1346 1343 1340 1337 1335 1332 1330 1329 1328
1433 1430 1427 1425 1422 1419 1417 1413 1410 1408 1404 1400 1396 1393 1390 1387 1384 1381 1378 1375 1371 1368 1365 1363 1359 1356 1353 1349 1345 1342 1339 1337 1334 1331 1329 1327 1326 1324
1425 1422 1419 1416 1413 1410 1407 1405 1402 1399 1396 1392 1389 1386 1383 1380 1377 1374 1370 1367 1364 1362 1359 1357 1354 1352 1349 1346 1342 1338 1336 1333 1331 1329 1327 1325 1323 1322
1417 1413 1411 1407 1405 1401 1399 1396 1393 1391 1388 1385 1381 1379 1376 1373 1370 1368 1365 1362 1359 1356 1354 1352 1349 1347 1344 1341 1338 1335 1333 1331 1329 1327 1325 1323 1321 1320
1409 1405 1402 1399 1396 1393 1390 1388 1385 1383 1380 1377 1375 1372 1370 1367 1364 1362 1360 1357 1354 1351 1349 1347 1345 1343 1340 1337 1334 1332 1330 1328 1326 1324 1322 1320 1319 1318
1401 1396 1393 1391 1388 1385 1382 1380 1377 1375 1373 1370 1368 1366 1363 1361 1359 1356 1355 1352 1350 1347 1345 1343 1341 1338 1336 1333 1332 1329 1327 1326 1324 1322 1320 1319 1317 1316
1392 1388 1385 1382 1379 1377 1374 1372 1369 1367 1365 1363 1361 1359 1357 1355 1353 1351 1349 1348 1345 1343 1341 1340 1338 1336 1334 1331 1329 1327 1325 1323 1322 1320 1319 1318 1316 1315
1382 1379 1376 1374 1371 1369 1366 1364 1362 1360 1358 1356 1354 1353 1351 1349 1347 1346 1344 1342 1341 1339 1337 1336 1334 1333 1331 1329 1327 1324 1323 1321 1320 1319 1318 1316 1315 1314
1373 1370 1368 1365 1363 1360 1358 1356 1354 1352 1351 1349 1348 1346 1345 1343 1342 1340 1339 1337 1336 1334 1333 1332 1330 1329 1327 1326 1324 1322 1321 1319 1318 1317 1316 1315 1314 1313
1364 1361 1359 1357 1354 1352 1350 1348 1346 1345 1343 1342 1341 1339 1338 1337 1336 1334 1333 1332 1331 1330 1329 1327 1326 1325 1324 1323 1321 1319 1318 1317 1316 1315 1314 1314 1314 1313
1355 1353 1350 1348 1346 1344 1342 1340 1339 1337 1336 1335 1334 1333 1332 1331 1330 1329 1328 1327 1326 1325 1324 1323 1322 1321 1320 1319 1318 1317 1316 1315 1314 1313 1313 1312 1312 1312